AEE122 LGAV-LGKO

Flight info

Callsign AEE122
Flight time 0h 36m
Altitude 23000
Route KEA L995 KOPAR
Aircraft A320/M-SDE3FGHIRWY/LB1

Departure

Time 2026-05-05 13:12
Airport Athens Eleftherios Venizelos International Airport (LGAV)

Arrival

Time 2026-05-05 13:49
Airport Kos International Airport "Ippokratis" (LGKO)
Time Latitude Longitude Altitude Speed Heading
2026-05-05 12:43 37.94120 23.95130 299 ft 0 kts 39°
2026-05-05 13:05 37.94111 23.95121 302 ft 4 kts 36°
2026-05-05 13:05 37.94101 23.95112 304 ft 0 kts 32°
2026-05-05 13:06 37.94100 23.95111 304 ft 2 kts 40°
2026-05-05 13:06 37.94091 23.95094 301 ft 2 kts 110°
2026-05-05 13:06 37.94095 23.95084 301 ft 0 kts 139°
2026-05-05 13:08 37.94094 23.95085 301 ft 1 kts 139°
2026-05-05 13:08 37.94091 23.95088 301 ft 2 kts 140°
2026-05-05 13:08 37.94061 23.95109 303 ft 8 kts 156°
2026-05-05 13:08 37.94002 23.95162 304 ft 13 kts 126°
2026-05-05 13:09 37.93945 23.95262 300 ft 15 kts 126°
2026-05-05 13:09 37.93876 23.95375 299 ft 15 kts 127°
2026-05-05 13:09 37.93866 23.95486 300 ft 16 kts 49°
2026-05-05 13:09 37.93959 23.95575 300 ft 18 kts 37°
2026-05-05 13:10 37.94065 23.95676 299 ft 20 kts 36°
2026-05-05 13:10 37.94183 23.95787 299 ft 22 kts 37°
2026-05-05 13:10 37.94295 23.95892 300 ft 14 kts 38°
2026-05-05 13:10 37.94330 23.95943 297 ft 0 kts 67°
2026-05-05 13:11 37.94332 23.95955 299 ft 3 kts 81°
2026-05-05 13:11 37.94314 23.96006 297 ft 11 kts 139°
2026-05-05 13:11 37.94216 23.96004 287 ft 19 kts 189°
2026-05-05 13:11 37.94076 23.95962 284 ft 22 kts 214°
2026-05-05 13:12 37.93872 23.95770 283 ft 67 kts 217°
2026-05-05 13:12 37.93332 23.95257 293 ft 124 kts 217°
2026-05-05 13:12 37.92527 23.94489 362 ft 161 kts 216°
2026-05-05 13:12 37.91686 23.93581 960 ft 158 kts 220°
2026-05-05 13:13 37.90852 23.92686 1612 ft 157 kts 219°
2026-05-05 13:13 37.89975 23.91860 2241 ft 158 kts 218°
2026-05-05 13:13 37.89067 23.91071 2822 ft 159 kts 216°
2026-05-05 13:13 37.88139 23.90300 3369 ft 161 kts 216°
2026-05-05 13:14 37.87163 23.89502 3687 ft 177 kts 215°
2026-05-05 13:14 37.86069 23.88618 3948 ft 198 kts 215°
2026-05-05 13:14 37.84828 23.87629 4182 ft 222 kts 215°
2026-05-05 13:14 37.83444 23.86516 4478 ft 248 kts 215°
2026-05-05 13:15 37.81927 23.85278 5006 ft 268 kts 215°
2026-05-05 13:15 37.80338 23.83960 5784 ft 276 kts 216°
2026-05-05 13:15 37.78732 23.82595 6650 ft 280 kts 218°
2026-05-05 13:15 37.77080 23.81244 7446 ft 287 kts 207°
2026-05-05 13:16 37.75140 23.80573 8232 ft 295 kts 184°
2026-05-05 13:16 37.73100 23.80947 9025 ft 300 kts 158°
2026-05-05 13:16 37.71351 23.82373 9825 ft 302 kts 132°
2026-05-05 13:16 37.70236 23.84592 10549 ft 301 kts 106°
2026-05-05 13:17 37.69835 23.87203 11013 ft 313 kts 94°
2026-05-05 13:17 37.69585 23.90031 11211 ft 335 kts 93°
2026-05-05 13:17 37.69346 23.93007 11508 ft 352 kts 93°
2026-05-05 13:17 37.69067 23.96149 12118 ft 359 kts 97°
2026-05-05 13:18 37.68434 23.99186 12742 ft 367 kts 108°
2026-05-05 13:18 37.67333 24.02122 13393 ft 374 kts 116°
2026-05-05 13:18 37.66104 24.05039 14028 ft 378 kts 116°
2026-05-05 13:18 37.64865 24.07996 14596 ft 383 kts 115°
2026-05-05 13:19 37.63615 24.10990 15141 ft 387 kts 115°
2026-05-05 13:19 37.62359 24.14006 15701 ft 391 kts 115°
2026-05-05 13:19 37.61086 24.17067 16227 ft 395 kts 115°
2026-05-05 13:19 37.59798 24.20151 16769 ft 400 kts 115°
2026-05-05 13:20 37.58495 24.23265 17316 ft 403 kts 115°
2026-05-05 13:20 37.57189 24.26372 17861 ft 407 kts 115°
2026-05-05 13:20 37.55888 24.29559 18398 ft 411 kts 111°
2026-05-05 13:20 37.54906 24.32936 18868 ft 412 kts 104°
2026-05-05 13:21 37.54017 24.36390 19351 ft 416 kts 104°
2026-05-05 13:21 37.53118 24.39878 19858 ft 420 kts 104°
2026-05-05 13:21 37.52210 24.43400 20321 ft 425 kts 104°
2026-05-05 13:21 37.51288 24.46958 20788 ft 429 kts 104°
2026-05-05 13:22 37.50355 24.50539 21261 ft 432 kts 104°
2026-05-05 13:22 37.49408 24.54149 21707 ft 436 kts 104°
2026-05-05 13:22 37.48452 24.57784 22154 ft 439 kts 104°
2026-05-05 13:22 37.47487 24.61450 22590 ft 443 kts 104°
2026-05-05 13:23 37.46514 24.65144 22969 ft 446 kts 104°
2026-05-05 13:23 37.45534 24.68871 23077 ft 453 kts 104°
2026-05-05 13:23 37.44534 24.72674 23084 ft 459 kts 104°
2026-05-05 13:23 37.43529 24.76492 23084 ft 461 kts 104°
2026-05-05 13:24 37.42519 24.80322 23084 ft 461 kts 104°
2026-05-05 13:24 37.41506 24.84154 23084 ft 462 kts 104°
2026-05-05 13:24 37.40492 24.87988 23085 ft 462 kts 104°
2026-05-05 13:24 37.39478 24.91813 23082 ft 462 kts 104°
2026-05-05 13:25 37.38470 24.95609 23084 ft 462 kts 104°
2026-05-05 13:25 37.37455 24.99425 23084 ft 462 kts 105°
2026-05-05 13:25 37.36433 25.03265 23097 ft 462 kts 105°
2026-05-05 13:25 37.35412 25.07097 23094 ft 462 kts 105°
2026-05-05 13:26 37.34392 25.10919 23088 ft 462 kts 105°
2026-05-05 13:26 37.33369 25.14743 23087 ft 461 kts 105°
2026-05-05 13:26 37.32345 25.18563 23084 ft 461 kts 105°
2026-05-05 13:26 37.31324 25.22383 23082 ft 461 kts 105°
2026-05-05 13:27 37.30301 25.26205 23083 ft 461 kts 105°
2026-05-05 13:27 37.29274 25.30017 23081 ft 461 kts 105°
2026-05-05 13:27 37.28242 25.33833 23096 ft 461 kts 105°
2026-05-05 13:27 37.27196 25.37641 23091 ft 462 kts 107°
2026-05-05 13:28 37.26068 25.41412 23105 ft 462 kts 108°
2026-05-05 13:28 37.24866 25.45159 23101 ft 463 kts 109°
2026-05-05 13:28 37.23628 25.48879 23098 ft 463 kts 110°
2026-05-05 13:28 37.22374 25.52604 23095 ft 463 kts 110°
2026-05-05 13:29 37.21116 25.56315 23091 ft 463 kts 110°
2026-05-05 13:29 37.19854 25.60030 23089 ft 462 kts 110°
2026-05-05 13:29 37.18601 25.63739 23084 ft 462 kts 110°
2026-05-05 13:29 37.17374 25.67403 23095 ft 462 kts 110°
2026-05-05 13:30 37.16120 25.71172 23090 ft 462 kts 110°
2026-05-05 13:30 37.14882 25.74892 23085 ft 462 kts 110°
2026-05-05 13:30 37.13664 25.78548 23080 ft 462 kts 110°
2026-05-05 13:30 37.12417 25.82273 23075 ft 462 kts 110°
2026-05-05 13:31 37.11172 25.85982 23074 ft 462 kts 110°
2026-05-05 13:31 37.09923 25.89694 23069 ft 462 kts 110°
2026-05-05 13:31 37.08674 25.93405 23069 ft 463 kts 110°
2026-05-05 13:31 37.07426 25.97111 22998 ft 458 kts 111°
2026-05-05 13:32 37.06203 26.00734 22729 ft 445 kts 111°
2026-05-05 13:32 37.05006 26.04276 22457 ft 440 kts 111°
2026-05-05 13:32 37.03819 26.07788 22193 ft 437 kts 111°
2026-05-05 13:32 37.02639 26.11274 21872 ft 432 kts 111°
2026-05-05 13:33 37.01472 26.14720 21349 ft 429 kts 111°
2026-05-05 13:33 37.00315 26.18140 20831 ft 426 kts 111°
2026-05-05 13:33 36.99160 26.21540 20344 ft 422 kts 111°
2026-05-05 13:33 36.98014 26.24911 19862 ft 419 kts 111°
2026-05-05 13:34 36.96877 26.28257 19352 ft 416 kts 111°
2026-05-05 13:34 36.95749 26.31584 18839 ft 414 kts 111°
2026-05-05 13:34 36.94627 26.34894 18310 ft 412 kts 111°
2026-05-05 13:34 36.93510 26.38184 17732 ft 409 kts 111°
2026-05-05 13:35 36.92403 26.41444 17195 ft 405 kts 111°
2026-05-05 13:35 36.91306 26.44674 16656 ft 402 kts 111°
2026-05-05 13:35 36.90223 26.47857 16121 ft 398 kts 110°
2026-05-05 13:35 36.89137 26.51044 15579 ft 395 kts 110°
2026-05-05 13:36 36.88065 26.54186 15036 ft 391 kts 110°
2026-05-05 13:36 36.87001 26.57298 14506 ft 388 kts 110°
2026-05-05 13:36 36.85938 26.60390 13960 ft 386 kts 110°
2026-05-05 13:36 36.84896 26.63416 13380 ft 383 kts 110°
2026-05-05 13:37 36.83847 26.66455 12832 ft 378 kts 111°
2026-05-05 13:37 36.82570 26.69313 12309 ft 377 kts 123°
2026-05-05 13:37 36.80899 26.71814 11768 ft 375 kts 130°
2026-05-05 13:37 36.79150 26.74209 11246 ft 371 kts 130°
2026-05-05 13:38 36.77419 26.76582 10715 ft 368 kts 130°
2026-05-05 13:38 36.75728 26.78904 10490 ft 350 kts 130°
2026-05-05 13:38 36.74152 26.81064 10362 ft 325 kts 130°
2026-05-05 13:38 36.72669 26.83100 10035 ft 312 kts 129°
2026-05-05 13:39 36.71228 26.85085 9744 ft 306 kts 129°
2026-05-05 13:39 36.69826 26.87073 9621 ft 304 kts 124°
2026-05-05 13:39 36.68725 26.89310 9307 ft 305 kts 112°
2026-05-05 13:39 36.67780 26.91691 8906 ft 305 kts 112°
2026-05-05 13:40 36.66850 26.94034 8485 ft 301 kts 112°
2026-05-05 13:40 36.65930 26.96345 7849 ft 299 kts 112°
2026-05-05 13:40 36.65010 26.98655 7262 ft 297 kts 111°
2026-05-05 13:40 36.64096 27.00948 6682 ft 295 kts 111°
2026-05-05 13:41 36.63181 27.03239 6055 ft 294 kts 111°
2026-05-05 13:41 36.62295 27.05431 5963 ft 273 kts 111°
2026-05-05 13:41 36.61469 27.07457 5899 ft 253 kts 110°
2026-05-05 13:41 36.60706 27.09327 5817 ft 234 kts 109°
2026-05-05 13:42 36.59999 27.11131 5728 ft 230 kts 103°
2026-05-05 13:42 36.59679 27.13017 5627 ft 216 kts 83°
2026-05-05 13:42 36.59826 27.14807 5353 ft 204 kts 66°
2026-05-05 13:42 36.60301 27.16424 5010 ft 196 kts 60°
2026-05-05 13:43 36.60782 27.17971 4733 ft 188 kts 63°
2026-05-05 13:43 36.61252 27.19463 4451 ft 182 kts 58°
2026-05-05 13:43 36.62028 27.20619 4181 ft 171 kts 29°
2026-05-05 13:43 36.63110 27.21123 3937 ft 162 kts
2026-05-05 13:44 36.64149 27.20967 3728 ft 141 kts 341°
2026-05-05 13:44 36.64983 27.20385 3534 ft 135 kts 330°
2026-05-05 13:44 36.65765 27.19768 3346 ft 132 kts 330°
2026-05-05 13:44 36.66545 27.19159 3157 ft 132 kts 330°
2026-05-05 13:45 36.67315 27.18555 2976 ft 133 kts 330°
2026-05-05 13:45 36.68094 27.17945 2799 ft 133 kts 329°
2026-05-05 13:45 36.68870 27.17338 2608 ft 130 kts 329°
2026-05-05 13:45 36.69641 27.16736 2416 ft 130 kts 329°
2026-05-05 13:46 36.70408 27.16144 2244 ft 130 kts 329°
2026-05-05 13:46 36.71175 27.15552 2083 ft 129 kts 329°
2026-05-05 13:46 36.71938 27.14961 1910 ft 129 kts 329°
2026-05-05 13:46 36.72442 27.14570 1802 ft 129 kts 328°
2026-05-05 13:47 36.73202 27.13978 1632 ft 129 kts 328°
2026-05-05 13:47 36.73965 27.13384 1454 ft 129 kts 328°
2026-05-05 13:47 36.74722 27.12795 1281 ft 128 kts 328°
2026-05-05 13:47 36.75484 27.12205 1101 ft 129 kts 324°
2026-05-05 13:48 36.76244 27.11614 930 ft 129 kts 324°
2026-05-05 13:48 36.77004 27.11023 758 ft 128 kts 324°
2026-05-05 13:48 36.77758 27.10436 593 ft 129 kts 323°
2026-05-05 13:48 36.78514 27.09847 406 ft 128 kts 325°
2026-05-05 13:49 36.79167 27.09334 404 ft 79 kts 329°
2026-05-05 13:49 36.79438 27.09127 412 ft 30 kts 328°
2026-05-05 13:49 36.79600 27.09004 414 ft 18 kts 334°
2026-05-05 13:49 36.79731 27.08988 418 ft 21 kts 358°
2026-05-05 13:50 36.79828 27.08984 418 ft 14 kts 358°
2026-05-05 13:50 36.79929 27.08978 417 ft 14 kts 351°
2026-05-05 13:50 36.80005 27.08929 413 ft 13 kts 326°
2026-05-05 13:50 36.80073 27.08883 417 ft 9 kts 10°
2026-05-05 13:51 36.80127 27.08900 419 ft 5 kts 358°
2026-05-05 13:51 36.80138 27.08912 413 ft 3 kts 56°
2026-05-05 13:51 36.80145 27.08925 411 ft 0 kts 58°